Sabula, IA

6:49 AM CDT on September 26, 2016 (GMT -0500)
Tri-Township

Weather History for KSFY - April, 2013

Change the Weather History Date:

Tuesday, April 30, 2013

  Actual Average (KCWI) Record (KCWI)
Temperature  
Mean Temperature 74 °F -  
Max Temperature 87 °F 69 °F 87 °F (2007)
Min Temperature 62 °F 45 °F 30 °F (1956)
Cooling Degree Days 10    
Growing Degree Days 24 (Base 50)    
Moisture  
Dew Point 52 °F    
Average Humidity 53    
Maximum Humidity 86    
Minimum Humidity 22    
Precipitation  
Precipitation 0.00 in - - ()
Sea Level Pressure  
Sea Level Pressure 29.76 in    
Wind  
Wind Speed 13 mph (South)    
Max Wind Speed 22 mph    
Max Gust Speed 29 mph    
Visibility 10 miles    
Events Thunderstorm    
Averages and records for this station are not official NWS values.
T = Trace of Precipitation, MM = Missing Value Source: NWS Daily Summary

Daily Weather History Graph

Daily Weather History Graph

Search for Another Location

Airport or City:

Trip Planner

Search our weather history database for the weather conditions in past years. The results will help you decide how hot, cold, wet, or windy it might be!

Date:

Astronomy

Apr. 30, 2013 Rise Set
Actual Time 5:57 AM CDT 7:58 PM CDT
Civil Twilight 5:26 AM CDT 8:29 PM CDT
Nautical Twilight 4:49 AM CDT 9:06 PM CDT
Astronomical Twilight 4:09 AM CDT 9:47 PM CDT
Moon 12:22 AM CDT (4/30) 10:25 AM CDT (4/30)
Length of Visible Light 15h 02m
Length of Day
14h 01m
Waning Gibbous, 70% of the Moon is Illuminated
Apr 30
Waning Gibbous
May 2
Last Quarter
May 9
New
May 17
First Quarter
May 24
Full

Hourly Weather History & Observations

Time (CDT) Temp. Dew Point Humidity Pressure Visibility Wind Dir Wind Speed Gust Speed Precip Events Conditions
12:15 AM 66.2 °F 56.7 °F 71% 29.71 in 10.0 mi SSE 13.8 mph - N/A   Scattered Clouds
12:35 AM 65.5 °F 56.5 °F 73% 29.71 in 10.0 mi SSE 10.4 mph - N/A   Scattered Clouds
12:55 AM 64.9 °F 56.7 °F 74% 29.70 in 10.0 mi SSE 11.5 mph - N/A   Clear
1:15 AM 64.4 °F 56.5 °F 75% 29.70 in 10.0 mi SSE 12.7 mph - N/A   Clear
1:35 AM 64.4 °F 56.5 °F 75% 29.70 in 10.0 mi SSE 12.7 mph 16.1 mph N/A Thunderstorm Clear
1:55 AM 63.9 °F 56.5 °F 77% 29.69 in 10.0 mi South 10.4 mph - N/A Thunderstorm Clear
2:15 AM 64.2 °F 56.7 °F 76% 29.69 in 10.0 mi SSE 15.0 mph 19.6 mph N/A   Clear
2:35 AM 64.2 °F 56.7 °F 76% 29.69 in 10.0 mi SSE 15.0 mph - N/A Thunderstorm Clear
2:55 AM 64.2 °F 56.8 °F 77% 29.69 in 10.0 mi SSE 13.8 mph - N/A Thunderstorm Clear
3:15 AM 63.5 °F 56.8 °F 79% 29.70 in 10.0 mi South 11.5 mph - N/A   Clear
3:35 AM 63.9 °F 57.2 °F 79% 29.69 in 10.0 mi South 15.0 mph - N/A Thunderstorm Clear
3:55 AM 63.9 °F 57.2 °F 79% 29.70 in 10.0 mi SSE 15.0 mph - N/A   Clear
4:15 AM 64.0 °F 57.2 °F 78% 29.69 in 10.0 mi SSE 13.8 mph - N/A Thunderstorm Clear
4:35 AM 63.9 °F 57.4 °F 79% 29.71 in 10.0 mi South 15.0 mph 19.6 mph N/A   Clear
4:55 AM 63.7 °F 57.6 °F 80% 29.71 in 10.0 mi SSE 11.5 mph - N/A   Clear
5:15 AM 63.5 °F 57.7 °F 81% 29.72 in 10.0 mi South 10.4 mph - N/A   Clear
5:35 AM 63.5 °F 57.7 °F 81% 29.73 in 10.0 mi South 6.9 mph - N/A   Clear
5:55 AM 63.0 °F 57.9 °F 84% 29.74 in 10.0 mi Calm Calm - N/A   Clear
6:15 AM 62.4 °F 57.7 °F 85% 29.74 in 10.0 mi SSE 9.2 mph - N/A   Clear
6:35 AM 62.1 °F 57.9 °F 86% 29.74 in 10.0 mi SSE 8.1 mph - N/A   Clear
6:55 AM 62.8 °F 58.3 °F 85% 29.74 in 10.0 mi SSE 10.4 mph - N/A   Clear
7:15 AM 64.8 °F 59.0 °F 82% 29.74 in 10.0 mi SSE 11.5 mph 18.4 mph N/A   Clear
7:35 AM 65.7 °F 59.0 °F 79% 29.75 in 10.0 mi South 12.7 mph 18.4 mph N/A   Clear
7:55 AM 65.5 °F 59.0 °F 80% 29.73 in 10.0 mi South 11.5 mph - N/A   Clear
8:15 AM 66.2 °F 59.0 °F 78% 29.74 in 10.0 mi South 12.7 mph 18.4 mph N/A   Clear
8:35 AM 68.0 °F 59.7 °F 75% 29.74 in 10.0 mi South 13.8 mph - N/A   Clear
8:55 AM 68.5 °F 59.2 °F 72% 29.73 in 10.0 mi South 15.0 mph 18.4 mph N/A   Clear
9:15 AM 70.3 °F 59.0 °F 67% 29.73 in 10.0 mi South 16.1 mph - N/A   Clear
9:35 AM 72.7 °F 58.8 °F 62% 29.73 in 10.0 mi SSW 15.0 mph 19.6 mph N/A   Clear
9:55 AM 75.0 °F 57.4 °F 54% 29.73 in 10.0 mi SSW 16.1 mph - N/A   Clear
10:15 AM 76.1 °F 55.4 °F 49% 29.73 in 10.0 mi SSW 13.8 mph - N/A   Clear
10:35 AM 77.9 °F 53.8 °F 43% 29.74 in 10.0 mi SSW 15.0 mph 21.9 mph N/A   Clear
10:55 AM 78.3 °F 51.8 °F 40% 29.74 in 10.0 mi SSW 11.5 mph 23.0 mph N/A   Clear
11:15 AM 80.4 °F 50.5 °F 35% 29.74 in 10.0 mi SSW 16.1 mph 23.0 mph N/A   Clear
11:35 AM 81.7 °F 50.9 °F 34% 29.74 in 10.0 mi SW 12.7 mph 19.6 mph N/A   Clear
11:55 AM 81.5 °F 49.6 °F 33% 29.75 in 10.0 mi SW 15.0 mph 24.2 mph N/A   Clear
12:15 PM 81.1 °F 48.0 °F 31% 29.75 in 10.0 mi SSW 18.4 mph 24.2 mph N/A   Clear
12:35 PM 81.7 °F 48.0 °F 31% 29.75 in 10.0 mi SSW 12.7 mph - N/A   Clear
12:55 PM 83.7 °F 47.7 °F 28% 29.74 in 10.0 mi SSW 16.1 mph 20.7 mph N/A   Clear
1:15 PM 84.6 °F 47.3 °F 27% 29.74 in 10.0 mi SSW 18.4 mph - N/A   Clear
1:35 PM 86.0 °F 46.0 °F 25% 29.74 in 10.0 mi SW 16.1 mph 24.2 mph N/A   Clear
1:55 PM 85.3 °F 46.6 °F 26% 29.74 in 10.0 mi SSW 17.3 mph 21.9 mph N/A   Clear
2:15 PM 86.2 °F 46.4 °F 25% 29.74 in 10.0 mi SSW 19.6 mph 26.5 mph N/A   Clear
2:35 PM 85.3 °F 45.7 °F 25% 29.74 in 10.0 mi SSW 20.7 mph 25.3 mph N/A   Clear
2:55 PM 85.8 °F 45.1 °F 24% 29.74 in 10.0 mi SSW 21.9 mph 27.6 mph N/A   Clear
3:15 PM 86.2 °F 46.0 °F 25% 29.74 in 10.0 mi SSW 16.1 mph 23.0 mph N/A   Clear
3:35 PM 87.8 °F 44.1 °F 22% 29.74 in 10.0 mi South 21.9 mph 28.8 mph N/A   Clear
4:15 PM 86.9 °F 44.2 °F 22% 29.74 in 10.0 mi SSW 19.6 mph 27.6 mph N/A   Clear
4:35 PM 85.3 °F 45.7 °F 25% 29.74 in 10.0 mi SSW 16.1 mph 24.2 mph N/A   Clear
4:55 PM 84.7 °F 46.2 °F 26% 29.75 in 10.0 mi SSW 18.4 mph 23.0 mph N/A   Clear
5:15 PM 85.8 °F 45.7 °F 25% 29.76 in 10.0 mi SSW 15.0 mph 23.0 mph N/A   Clear
5:35 PM 84.9 °F 45.3 °F 25% 29.76 in 10.0 mi SSW 17.3 mph 23.0 mph N/A   Clear
5:55 PM 84.4 °F 44.8 °F 25% 29.77 in 10.0 mi South 16.1 mph 25.3 mph N/A   Clear
6:15 PM 83.3 °F 43.5 °F 25% 29.78 in 10.0 mi South 17.3 mph 23.0 mph N/A   Clear
6:35 PM 82.8 °F 44.1 °F 26% 29.78 in 10.0 mi South 15.0 mph 19.6 mph N/A   Clear
6:55 PM 82.2 °F 45.1 °F 27% 29.79 in 10.0 mi South 12.7 mph 21.9 mph N/A   Clear
7:15 PM 80.2 °F 45.5 °F 29% 29.79 in 10.0 mi South 12.7 mph - N/A   Clear
7:35 PM 79.9 °F 45.1 °F 29% 29.81 in 10.0 mi South 12.7 mph - N/A   Clear
7:55 PM 76.6 °F 46.8 °F 35% 29.81 in 10.0 mi South 6.9 mph - N/A   Clear
8:15 PM 74.5 °F 46.9 °F 38% 29.81 in 10.0 mi SSW 5.8 mph - N/A   Clear
8:35 PM 73.6 °F 48.2 °F 41% 29.82 in 10.0 mi South 4.6 mph - N/A   Clear
8:55 PM 70.5 °F 50.0 °F 48% 29.83 in 10.0 mi SSE 8.1 mph - N/A   Clear
9:15 PM 69.8 °F 50.7 °F 51% 29.83 in 10.0 mi South 9.2 mph - N/A   Clear
9:35 PM 70.3 °F 51.1 °F 50% 29.85 in 10.0 mi South 8.1 mph - N/A   Clear
9:55 PM 68.7 °F 52.0 °F 55% 29.85 in 10.0 mi SSE 9.2 mph - N/A   Clear
10:15 PM 71.6 °F 52.9 °F 52% 29.85 in 10.0 mi South 12.7 mph - N/A   Clear
10:35 PM 72.5 °F 54.5 °F 53% 29.87 in 10.0 mi South 13.8 mph - N/A   Clear
10:55 PM 72.5 °F 54.9 °F 54% 29.87 in 10.0 mi South 11.5 mph - N/A   Clear
11:15 PM 72.5 °F 54.7 °F 53% 29.88 in 10.0 mi South 11.5 mph - N/A   Clear
11:35 PM 71.8 °F 54.3 °F 54% 29.89 in 10.0 mi South 12.7 mph - N/A   Clear
11:55 PM 71.6 °F 53.6 °F 53% 29.90 in 10.0 mi South 11.5 mph - N/A   Clear